Latest Weather Observations for Dennes Point

IDT60901

Issued at 11:25 am EDT Saturday 25 October 2014 (issued every 10 minutes, with the page automatically refreshed every 10 minutes)

About weather observations | Map of Hobart area stations | Latest observations for Hobart area | Other Formats
Station Details ID: 094255 Name: DENNES POINT Lat: -43.06 Lon: 147.36 Height: 5.67 m
Data from the previous 72 hours. | See also: Recent months at Dennes Point
Date/Time
EDT
Tmp

°C
App
Tmp
°C
Dew
Point
°C
Rel
Hum
%
Delta-T

°C
Wind Press
QNH
hPa
Press
MSL
hPa
Rain
since
9 am
mm
Dir
 
Spd
km/h
Gust
km/h
Spd
kts
Gust
kts
25/11:00am 17.6 15.0 9.2 58 4.4 S 13 20 7 11 1015.5 1015.5 0.0
25/10:30am 17.1 15.8 9.3 60 4.1 S 6 13 3 7 1015.6 1015.6 0.0
25/10:00am 16.3 14.6 9.9 66 3.3 S 9 19 5 10 1015.4 1015.4 0.0
25/09:30am 16.0 13.8 9.4 65 3.4 S 11 17 6 9 1015.1 1015.1 0.0
25/09:00am 15.4 12.1 9.5 68 3.0 S 17 26 9 14 1015.0 1015.0 0.0
25/08:30am 14.9 11.7 9.9 72 2.6 S 17 26 9 14 1014.7 1014.7 0.0
25/08:00am 14.1 10.3 9.9 76 2.2 S 20 30 11 16 1014.3 1014.3 0.0
25/07:30am 13.0 9.1 9.6 80 1.7 S 20 30 11 16 1014.0 1014.0 0.0
25/07:00am 12.8 8.6 9.8 82 1.5 S 22 35 12 19 1013.3 1013.3 0.0
25/06:30am 13.1 10.1 10.5 84 1.4 S 17 26 9 14 1012.7 1012.7 0.0
25/06:00am 13.4 10.4 10.8 84 1.4 S 17 24 9 13 1012.3 1012.3 0.0
25/05:30am 13.7 10.3 11.4 86 1.2 S 20 32 11 17 1011.7 1011.7 0.0
25/05:00am 14.1 13.0 11.8 86 1.2 SSW 9 15 5 8 1011.2 1011.2 0.0
25/04:30am 14.0 13.8 11.7 86 1.2 SW 4 7 2 4 1010.8 1010.8 0.0
25/04:00am 13.9 13.2 12.1 89 1.0 W 7 9 4 5 1010.4 1010.4 0.0
25/03:30am 13.3 13.8 11.5 89 1.0 CALM 0 0 0 0 1010.0 1010.0 0.0
25/03:00am 13.7 13.0 12.1 90 0.9 NNE 7 13 4 7 1009.6 1009.6 0.0
25/02:30am 13.4 14.0 11.8 90 0.9 CALM 0 4 0 2 1009.3 1009.3 0.0
25/02:00am 13.3 12.5 11.7 90 0.9 SW 7 7 4 4 1009.0 1009.0 0.0
25/01:30am 13.6 13.5 12.2 91 0.8 N 4 9 2 5 1008.6 1008.6 0.0
25/01:00am 13.6 13.2 12.3 92 0.7 ESE 6 9 3 5 1008.6 1008.6 0.0
25/12:30am 13.1 13.3 12.0 93 0.6 SSE 2 4 1 2 1008.9 1008.9 0.0
25/12:00am 13.0 12.8 11.9 93 0.6 SSW 4 6 2 3 1008.7 1008.7 0.0
 
Date/Time
EDT
Tmp

°C
App
Tmp
°C
Dew
Point
°C
Rel
Hum
%
Delta-T

°C
Wind Press
QNH
hPa
Press
MSL
hPa
Rain
since
9 am
mm
Dir
 
Spd
km/h
Gust
km/h
Spd
kts
Gust
kts
24/11:30pm 13.5 12.9 12.4 93 0.6 SW 7 11 4 6 1008.7 1008.7 0.0
24/11:00pm 13.4 13.7 12.1 92 0.7 SSW 2 6 1 3 1008.6 1008.6 0.0
24/10:30pm 13.7 12.7 12.4 92 0.7 SW 9 17 5 9 1008.3 1008.3 0.0
24/10:00pm 14.5 14.2 12.7 89 1.0 ESE 6 7 3 4 1008.3 1008.3 0.0
24/09:30pm 14.3 14.5 12.9 91 0.8 NE 4 6 2 3 1008.4 1008.4 0.0
24/09:00pm 14.8 15.8 13.2 90 0.9 CALM 0 0 0 0 1008.2 1008.2 0.0
24/08:30pm 14.4 14.9 12.8 90 0.9 NW 2 4 1 2 1008.2 1008.2 0.0
24/08:00pm 15.1 13.3 13.3 89 1.0 NE 15 17 8 9 1007.8 1007.8 0.0
24/07:30pm 15.3 12.7 13.3 88 1.1 NE 19 20 10 11 1007.7 1007.7 0.0
24/07:00pm 15.5 12.9 13.3 87 1.2 ENE 19 22 10 12 1007.9 1007.9 0.0
24/06:30pm 15.8 12.3 13.3 85 1.4 NNE 24 30 13 16 1008.4 1008.4 0.0
24/06:00pm 16.1 12.9 13.2 83 1.6 NE 22 26 12 14 1009.0 1009.0 0.0
24/05:30pm 16.4 13.2 13.1 81 1.8 NE 22 30 12 16 1009.2 1009.2 0.0
24/05:00pm 17.1 13.1 13.0 77 2.3 NE 26 30 14 16 1009.3 1009.3 0.0
24/04:30pm 17.0 12.5 12.7 76 2.4 NE 28 33 15 18 1009.5 1009.5 0.0
24/04:00pm 17.3 13.5 12.4 73 2.7 NE 24 28 13 15 1010.2 1010.2 0.0
24/03:30pm 17.8 14.0 12.5 71 2.9 NE 24 28 13 15 1010.8 1010.8 0.0
24/03:00pm 17.7 14.3 12.6 72 2.8 NE 22 28 12 15 1011.4 1011.4 0.0
24/02:30pm 16.2 12.7 12.2 77 2.2 NE 22 26 12 14 1012.1 1012.1 0.0
24/02:00pm 15.8 12.2 12.0 78 2.1 NE 22 28 12 15 1012.6 1012.6 0.0
24/01:30pm 15.3 11.3 11.9 80 1.8 NE 24 30 13 16 1013.5 1013.5 0.0
24/01:00pm 15.0 9.7 11.4 79 1.9 NE 30 33 16 18 1014.2 1014.2 0.0
24/12:30pm 15.3 11.4 10.9 75 2.3 NNE 22 24 12 13 1014.7 1014.7 0.0
24/12:00pm 15.7 12.6 10.2 70 2.9 NNE 17 20 9 11 1015.5 1015.5 0.0
24/11:30am 14.1 10.8 9.5 74 2.4 NE 17 19 9 10 1016.3 1016.3 0.0
24/11:00am 13.8 9.7 8.8 72 2.5 N 20 24 11 13 1016.7 1016.7 0.0
24/10:30am 13.4 8.9 8.5 72 2.4 N 22 26 12 14 1017.3 1017.3 0.0
24/10:00am 12.9 7.5 7.8 71 2.5 N 26 32 14 17 1017.5 1017.5 0.0
24/09:30am 12.3 6.4 7.4 72 2.4 N 28 35 15 19 1018.1 1018.1 0.0
24/09:00am 12.1 5.5 7.8 75 2.1 N 32 37 17 20 1018.5 1018.5 0.0
24/08:30am 12.0 6.0 7.1 72 2.4 N 28 35 15 19 1019.3 1019.3 0.0
24/08:00am 11.5 5.5 7.0 74 2.1 N 28 33 15 18 1019.6 1019.6 0.0
24/07:30am 11.4 5.4 7.1 75 2.1 N 28 35 15 19 1020.0 1020.0 0.0
24/07:00am 10.8 5.5 6.7 76 1.9 N 24 30 13 16 1020.0 1020.0 0.0
24/06:30am 10.7 5.5 7.2 79 1.7 N 24 28 13 15 1020.3 1020.3 0.0
24/06:00am 10.8 5.5 6.7 76 1.9 N 24 30 13 16 1020.6 1020.6 0.0
24/05:30am 10.7 5.4 6.6 76 1.9 N 24 28 13 15 1020.9 1020.9 0.0
24/05:00am 10.5 5.1 6.3 75 2.0 N 24 28 13 15 1021.1 1021.1 0.0
24/04:30am 10.4 5.8 6.4 76 1.9 N 20 26 11 14 1021.5 1021.5 0.0
24/04:00am 10.4 5.4 6.5 77 1.8 NNE 22 26 12 14 1021.8 1021.8 0.0
24/03:30am 10.7 5.4 6.6 76 1.9 NNE 24 30 13 16 1022.4 1022.4 0.0
24/03:00am 10.4 4.9 6.0 74 2.0 N 24 28 13 15 1022.9 1022.9 0.0
24/02:30am 10.8 5.8 6.6 75 2.0 N 22 26 12 14 1023.0 1023.0 0.0
24/02:00am 10.9 6.0 6.8 76 1.9 NNE 22 26 12 14 1023.5 1023.5 0.0
24/01:30am 10.8 5.5 6.6 75 2.0 N 24 28 13 15 1023.8 1023.8 0.0
24/01:00am 10.8 5.4 6.2 73 2.1 NNE 24 30 13 16 1024.2 1024.2 0.0
24/12:30am 10.8 5.4 6.2 73 2.1 NNE 24 30 13 16 1024.5 1024.5 0.0
24/12:00am 10.9 5.9 6.3 73 2.1 NNE 22 28 12 15 1024.9 1024.9 0.0
 
Date/Time
EDT
Tmp

°C
App
Tmp
°C
Dew
Point
°C
Rel
Hum
%
Delta-T

°C
Wind Press
QNH
hPa
Press
MSL
hPa
Rain
since
9 am
mm
Dir
 
Spd
km/h
Gust
km/h
Spd
kts
Gust
kts
23/11:30pm 11.1 5.8 6.6 74 2.1 NNE 24 28 13 15 1024.9 1024.9 0.0
23/11:00pm 11.3 5.6 6.6 73 2.2 NNE 26 32 14 17 1025.0 1025.0 0.0
23/10:30pm 11.4 6.1 6.9 74 2.1 NNE 24 30 13 16 1025.1 1025.1 0.0
23/10:00pm 11.5 5.4 6.6 72 2.3 NE 28 33 15 18 1025.1 1025.1 0.0
23/09:30pm 11.6 4.8 6.7 72 2.3 NE 32 37 17 20 1025.4 1025.4 0.0
23/09:00pm 11.6 6.3 6.7 72 2.3 NE 24 30 13 16 1025.7 1025.7 0.0
23/08:30pm 11.6 6.6 6.5 71 2.4 NE 22 28 12 15 1025.5 1025.5 0.0
23/08:00pm 11.9 6.6 6.6 70 2.5 NE 24 28 13 15 1025.6 1025.6 0.0
23/07:30pm 12.1 7.1 6.6 69 2.6 ENE 22 26 12 14 1025.7 1025.7 0.0
23/07:00pm 12.7 8.3 7.2 69 2.6 ENE 20 24 11 13 1025.6 1025.6 0.0
23/06:30pm 13.1 8.5 6.7 65 3.1 ENE 20 24 11 13 1025.3 1025.3 0.0
23/06:00pm 13.6 10.4 6.7 63 3.3 E 13 20 7 11 1025.4 1025.4 0.0
23/05:30pm 13.7 10.4 6.6 62 3.4 ESE 13 19 7 10 1025.4 1025.4 0.0
23/05:00pm 13.6 9.1 6.2 61 3.5 ESE 19 22 10 12 1025.1 1025.1 0.0
23/04:30pm 13.7 9.2 6.3 61 3.5 ESE 19 24 10 13 1025.1 1025.1 0.0
23/04:00pm 13.8 9.0 5.7 58 3.8 ESE 20 24 11 13 1025.2 1025.2 0.0
23/03:30pm 13.9 9.6 5.3 56 4.0 ESE 17 20 9 11 1025.1 1025.1 0.0
23/03:00pm 13.8 9.5 5.4 57 3.9 ESE 17 24 9 13 1025.3 1025.3 0.0
23/02:30pm 13.9 9.7 5.5 57 4.0 ESE 17 22 9 12 1025.6 1025.6 0.0
23/02:00pm 13.9 9.6 5.3 56 4.0 ESE 17 20 9 11 1025.7 1025.7 0.0
23/01:30pm 13.8 10.2 4.9 55 4.1 ESE 13 17 7 9 1025.9 1025.9 0.0
23/01:00pm 13.8 9.4 4.9 55 4.1 ESE 17 24 9 13 1025.8 1025.8 0.0
23/12:30pm 13.9 9.9 5.0 55 4.1 ESE 15 20 8 11 1026.1 1026.1 0.0
23/12:00pm 13.9 9.9 5.0 55 4.1 ESE 15 19 8 10 1026.4 1026.4 0.0
23/11:30am 13.8 10.2 4.9 55 4.1 E 13 19 7 10 1026.7 1026.7 0.0
23/11:00am 13.4 9.8 4.8 56 3.9 ESE 13 20 7 11 1026.7 1026.7 0.0
23/10:30am 12.8 9.6 5.0 59 3.6 E 11 19 6 10 1026.6 1026.6 0.0
23/10:00am 12.7 9.5 4.9 59 3.6 ESE 11 19 6 10 1026.6 1026.6 0.0
23/09:30am 11.8 8.4 4.1 59 3.5 SW 11 15 6 8 1026.4 1026.4 0.0
23/09:00am 11.9 9.3 4.4 60 3.4 S 7 13 4 7 1026.4 1026.4 0.0
23/08:30am 11.3 8.3 4.1 61 3.2 SSW 9 17 5 9 1026.2 1026.2 0.0
23/08:00am 11.2 8.2 4.2 62 3.1 SSW 9 15 5 8 1025.8 1025.8 0.0
23/07:30am 10.6 7.2 3.9 63 3.0 SSW 11 17 6 9 1025.4 1025.4 0.0
23/07:00am 10.4 7.5 4.5 67 2.6 S 9 13 5 7 1024.9 1024.9 0.0
23/06:30am 10.3 7.4 4.9 69 2.4 S 9 17 5 9 1024.3 1024.3 0.0
23/06:00am 10.4 7.6 5.0 69 2.4 S 9 15 5 8 1023.9 1023.9 0.0
23/05:30am 10.5 8.3 5.5 71 2.3 S 6 11 3 6 1023.3 1023.3 0.0
23/05:00am 10.8 8.1 5.6 70 2.4 SSW 9 15 5 8 1022.9 1022.9 0.0
23/04:30am 10.9 8.6 5.7 70 2.4 SSW 7 15 4 8 1022.6 1022.6 0.0
23/04:00am 11.0 8.3 5.7 70 2.4 S 9 15 5 8 1022.4 1022.4 0.0
23/03:30am 10.9 8.1 6.8 76 1.9 S 11 19 6 10 1022.3 1022.3 0.0
23/03:00am 10.9 7.5 7.6 80 1.6 SSW 15 30 8 16 1022.3 1022.3 0.0
23/02:30am 11.3 7.0 7.2 76 2.0 SSW 19 28 10 15 1022.2 1022.2 0.0
23/02:00am 11.1 7.3 7.4 78 1.8 SSW 17 30 9 16 1022.0 1022.0 0.0
23/01:30am 11.2 7.2 8.4 83 1.4 SSW 19 33 10 18 1021.7 1021.7 0.0
23/01:00am 11.7 6.6 9.3 85 1.2 SSW 26 37 14 20 1021.5 1021.5 0.0
23/12:30am 12.3 8.8 10.2 87 1.1 SSW 19 30 10 16 1021.5 1021.5 0.0
23/12:00am 13.1 9.1 10.5 84 1.3 S 22 35 12 19 1021.0 1021.0 0.0
 
Date/Time
EDT
Tmp

°C
App
Tmp
°C
Dew
Point
°C
Rel
Hum
%
Delta-T

°C
Wind Press
QNH
hPa
Press
MSL
hPa
Rain
since
9 am
mm
Dir
 
Spd
km/h
Gust
km/h
Spd
kts
Gust
kts
22/11:30pm 13.7 9.0 9.4 75 2.2 SSW 24 35 13 19 1020.2 1020.2 0.0
22/11:00pm 13.5 8.6 9.9 79 1.8 S 26 39 14 21 1020.0 1020.0 0.0
22/10:30pm 13.7 8.4 9.9 78 2.0 S 28 43 15 23 1019.5 1019.5 0.0
22/10:00pm 13.7 8.2 10.5 81 1.7 S 30 41 16 22 1018.8 1018.8 0.0
22/09:30pm 14.3 11.4 10.9 80 1.8 SSW 17 35 9 19 1018.5 1018.5 0.0
22/09:00pm 15.2 13.1 11.2 77 2.1 S 13 22 7 12 1018.0 1018.0 0.0
22/08:30pm 14.3 13.0 10.1 76 2.2 SW 7 9 4 5 1017.3 1017.3 0.0
22/08:00pm 14.2 13.3 11.5 84 1.4 SE 7 13 4 7 1016.5 1016.5 0.0
22/07:30pm 14.8 13.7 10.6 76 2.2 SE 7 11 4 6 1016.1 1016.1 0.0
22/07:00pm 16.5 15.0 8.5 59 4.1 W 6 9 3 5 1015.5 1015.5 0.0
22/06:30pm 16.0 14.2 9.4 65 3.4 SSE 9 20 5 11 1014.9 1014.9 0.0
22/06:00pm 16.6 14.4 9.3 62 3.8 ESE 11 17 6 9 1014.2 1014.2 0.0
22/05:30pm 18.3 15.9 6.8 47 5.7 SSW 9 19 5 10 1014.4 1014.4 0.0
22/05:00pm 17.9 15.6 10.3 61 4.0 SW 13 17 7 9 1014.1 1014.1 0.0
22/04:30pm 18.9 17.5 8.8 52 5.3 SSE 6 11 3 6 1013.4 1013.4 0.0
22/04:00pm 19.3 17.5 8.0 48 5.8 E 7 13 4 7 1014.0 1014.0 0.0
22/03:30pm 19.8 16.8 9.1 50 5.6 SE 15 22 8 12 1013.8 1013.8 0.0
22/03:00pm 22.3 19.8 8.1 40 7.5 ESE 11 13 6 7 1013.9 1013.9 0.0
22/02:30pm 20.1 17.7 8.8 48 5.9 ESE 11 15 6 8 1014.0 1014.0 0.0
22/02:00pm 19.7 17.2 9.6 52 5.4 ESE 13 17 7 9 1014.2 1014.2 0.0
22/01:30pm 20.5 17.6 9.7 50 5.8 ESE 15 19 8 10 1014.7 1014.7 0.0
22/01:00pm 19.9 18.6 7.6 45 6.3 NNE 4 6 2 3 1015.0 1015.0 0.0
22/12:30pm 18.6 17.5 9.9 57 4.6 NNE 6 7 3 4 1015.6 1015.6 0.0
22/12:00pm 17.5 15.0 9.7 60 4.1 N 13 15 7 8 1016.0 1016.0 0.0
22/11:30am 16.7 13.6 8.7 59 4.1 N 15 19 8 10 1016.7 1016.7 0.0

Latest Capital City Observations: Canberra | Sydney | Melbourne | Brisbane | Adelaide | Perth | Hobart | Darwin

Other Formats:

Comma delimited format used in spreadsheet applications
http://www.bom.gov.au/fwo/IDT60901/IDT60901.94988.axf

JavaScript Object Notation format (JSON) in row-major order
http://www.bom.gov.au/fwo/IDT60901/IDT60901.94988.json